Flag for Canada Weather past 2 weeks in Richmond Hill, Ontario, Canada

Now
70 °F

Passing clouds.


Feels Like: 70 °F
Forecast: 62 / 78 °F
Wind: 2 mph from North

Location: Toronto Buttonville

Current Time: Jul 7, 2015 at 1:42:53 AM

Latest Report: Jul 7, 2015 at 1:00 AM


Visibility: 8 mi

Pressure: 29.93 "Hg

Humidity: 88%

Dew point: 66 °F

Location of Richmond HillLocation

Historic Weather in Richmond Hill — Graph

°F

Richmond Hill temperature yesterday

Maximum temperature yesterday: 79 °F (at 12:00 PM)
Minimum temperature yesterday: 59 °F (at 5:00 AM)
Average temperature yesterday: 71 °F

Past Weeks' High & Low Weather Summary

 TemperatureHumidityPressure
High79 °F (Jun 22, 2:00 PM)100% (Jun 23, 1:04 AM)30.13 "Hg (Jun 23, 1:04 AM)
Low52 °F (Jul 4, 5:00 AM)31% (Jul 3, 5:00 PM)29.62 "Hg (Jun 23, 5:00 AM)
Average65 °F72%29.94 "Hg
* Reported Midnight between Jun 21 and Jun 22 — Midnight between Jul 6 and Jul 7, Richmond Hill, Weather by CustomWeather, © 2015

Note: Actual official high and low records may vary slightly from our data, if they occured in-between our weather recording intervals... More about our weather records

Advertising

Richmond Hill weather history for previous 24 hours

 ConditionsComfort  
Time TempWeatherWind HumidityBarometerVisibility
12:00 AM
Tue, Jul 7
72 °FPassing clouds.3 mph83%29.92 "Hg8 mi
11:00 PM
Mon, Jul 6
70 °FClear.2 mph83%29.95 "Hg10 mi
10:00 PM72 °FPassing clouds.5 mph78%29.95 "Hg10 mi
9:00 PM73 °FScattered clouds.7 mph65%29.96 "Hg12 mi
8:00 PM75 °FScattered clouds.9 mph61%29.98 "Hg15 mi
7:00 PM77 °FPartly sunny.12 mph61%29.99 "Hg15 mi
6:00 PM77 °FPartly sunny.7 mph57%30.00 "Hg15 mi
5:00 PM79 °FPartly sunny.12 mph54%30.01 "Hg15 mi
4:00 PM77 °FBroken clouds.10 mph57%30.03 "Hg15 mi
3:00 PM79 °FScattered clouds.9 mph58%30.03 "Hg15 mi
2:00 PM79 °FScattered clouds.13 mph54%30.04 "Hg15 mi
1:00 PM79 °FPassing clouds.8 mph54%30.07 "Hg12 mi
12:00 PM79 °FSunny.8 mph58%30.08 "Hg12 mi
11:00 AM77 °FSunny.7 mph61%30.09 "Hg12 mi
10:00 AM73 °FSunny.7 mph69%30.09 "Hg12 mi
9:00 AM70 °FSunny.2 mph78%30.09 "Hg12 mi
8:00 AM66 °FSunny.2 mph83%30.09 "Hg12 mi
7:00 AM61 °FSunny.2 mph94%30.10 "Hg10 mi
6:00 AM59 °FClear.2 mph94%30.09 "Hg8 mi
5:00 AM59 °FClear.3 mph94%30.09 "Hg10 mi
4:00 AM61 °FClear.No wind94%30.10 "Hg10 mi
3:00 AM61 °FClear.2 mph88%30.09 "Hg10 mi
2:00 AM63 °FClear.2 mph88%30.09 "Hg10 mi
1:00 AM64 °FClear.2 mph83%30.09 "Hg10 mi
Weather by CustomWeather, © 2015

See weather overviewHow to use our weather pages